Regional Weather Roundup
Issued by NWS

Home | Current Version | Previous Version | Text Only | Print | Product List | Glossary On
Versions: 1 2 3 4 5 6 7 8 9 10 11 12 13 14 15 16 17 18 19 20 21 22 23 24 25 26 27 28 29 30 31 32 33 34 35 36 37 38 39 40 41 42 43 44 45 46 47 48 49 50
000
ASUS43 KDTX 240710
RWRMI
MICHIGAN HOURLY REGIONAL WEATHER ROUNDUP
NATIONAL WEATHER SERVICE DETROIT/PONTIAC MI
300 AM EDT SUN MAY 24 2015

NOTE: "FAIR" INDICATES FEW OR NO CLOUDS BELOW 12,000 FEET WITH NO
SIGNIFICANT WEATHER AND/OR OBSTRUCTION TO VISIBILITY.

MIZ047>049-052>055-059>063-066>070-074>076-081>083-240800-
SOUTHEAST LOWER MICHIGAN

CITY           SKY/WX    TMP DP  RH WIND       PRES   REMARKS
ADRIAN         CLEAR     53  47  79 CALM      30.26F
ALMA           CLOUDY    51  47  84 CALM      30.24S
ANN ARBOR      CLEAR     47  45  93 CALM      30.26F
BAD AXE        CLEAR     50  37  61 S5        30.24S
CARO           CLEAR     43  41  93 CALM      30.24S
DETROIT CITY   CLEAR     57  40  52 CALM      30.26F
DETROIT        CLEAR     54  48  80 CALM      30.26F
FLINT          MOCLDY    51  42  71 CALM      30.25S
GROSSE ILE     CLEAR     55  46  71 CALM      30.24F
HILLSDALE      CLEAR     58  45  61 SE5       30.25F
HOWELL         CLOUDY    56  43  61 CALM      30.25S

CITY           SKY/WX    TMP DP  RH WIND       PRES   REMARKS
JACKSON        MOCLDY    56  45  66 SE3       30.25F
LAMBERTVILLE   CLEAR     52  45  76 S3        30.25F
LANSING        CLOUDY    58  45  62 SE3       30.25S
LAPEER         FAIR      45  42  91 CALM      30.25S
MASON          CLOUDY    57  43  59 S6        30.25S
MONROE         CLEAR     52  50  93 CALM      30.24S
MT. CLEMENS    CLEAR     50  43  76 MISG      30.24S
PONTIAC        CLEAR     52  41  66 CALM      30.26S
PORT HOPE        N/A     58  37  45 SW7       30.21S
PORT HURON     CLEAR     43  41  93 CALM      30.26F
TRI CITIES     CLEAR     58  40  51 S6        30.24S
MIDLAND        FAIR      46  44  90 CALM      30.22S
TROY           CLEAR     56  41  58 CALM      30.28S
SAGINAW HB     CLEAR     54  39  58 S8        30.23F
$$
MIZ043>046-050>051-056>058-064>065-071>073-077>080-240800-
SOUTHWEST LOWER MICHIGAN

CITY           SKY/WX    TMP DP  RH WIND       PRES   REMARKS
BATTLE CREEK   CLEAR     60  46  59 CALM      30.24S
BENTON HARBOR  PTCLDY    53  47  79 S3        30.21S
BIG RAPIDS     CLOUDY    49  42  78 W6        30.22S
COLDWATER      CLEAR     55  47  75 CALM      30.24S
FREMONT        MOCLDY    55  47  74 CALM      30.21F
HOLLAND        PTCLDY    56  47  71 CALM      30.22S
GRAND RAPIDS   CLOUDY    59  46  62 E3        30.22F
IONIA          CLOUDY    57  47  69 CALM      30.22F
KALAMAZOO      CLEAR     56  47  71 CALM      30.23S
LUDINGTON      CLOUDY    53  48  82 CALM      30.20F
MARSHALL       CLEAR     54  47  79 CALM      30.23F
MOUNT PLEASANT CLEAR     48  45  90 CALM      30.22S
MUSKEGON       MOCLDY    58  44  60 SE3       30.21S
SOUTH HAVEN    CLEAR     55  47  77 CALM      30.21S
$$
MIZ016>042-240800-
NORTHERN LOWER MICHIGAN

CITY           SKY/WX    TMP DP  RH WIND       PRES   REMARKS
ALPENA         CLEAR     47  38  71 SW3       30.19S
BEAVER ISLAND  PTCLDY    52  35  52 SW12      30.18S
BELLAIRE       CLEAR     42  40  93 CALM      30.20S
CADILLAC       PTCLDY    45  38  78 CALM      30.21F
CHARLEVOIX     CLEAR     59  38  46 CALM      30.21S
FRANKFORT      PTCLDY    55  41  60 CALM      30.18F
GAYLORD        CLEAR     52  37  56 CALM      30.21S
GRAYLING       CLEAR     37  34  87 CALM      30.21F
HARBOR SPRINGS CLEAR     49  40  71 CALM      30.19S
HOUGHTON LAKE  CLEAR     42  40  92 CALM      30.23S
MANISTEE       PTCLDY    46  39  76 E3        30.20F
OSCODA         CLEAR     49  42  76 SW5       30.20S
PELLSTON       CLEAR     59  37  44 W3        30.18S
ROGERS CITY    CLEAR     43  38  83 CALM      30.19S
TRAVERSE CITY  PTCLDY    54  41  61 CALM      30.18F
$$
MIZ007>008-015-240800-
EASTERN UPPER MICHIGAN

CITY           SKY/WX    TMP DP  RH WIND       PRES   REMARKS
KINROSS        CLEAR     52  37  58 SW7       30.15F
MACKINAC ISLAN CLEAR     55  38  52 SW10G18   30.16F
NEWBERRY       CLEAR     48  38  67 SW9       30.14S
S. S. MARIE    PTCLDY    51  35  54 SW7       30.14S
MUNISING         N/A     66  39  37 NW10      30.13R
$$
MIZ004>006-011>014-085-240800-
CENTRAL UPPER MICHIGAN

CITY           SKY/WX    TMP DP  RH WIND       PRES   REMARKS
MANISTIQUE     PTCLDY    50  42  72 SW8       30.14F
ESCANABA       CLOUDY    61  41  48 W3        30.15S
MENOMINEE      CLOUDY    61  43  51 CALM      30.16F
SAWYER-GWINN   CLEAR     54  37  53 CALM      30.15F
$$
MIZ001>003-009>011-084-240800-
WESTERN UPPER MICHIGAN

CITY           SKY/WX    TMP DP  RH WIND       PRES   REMARKS
IRON MOUNTAIN  CLOUDY    60  43  53 S6        30.15F
HOUGHTON       PTCLDY    61  40  45 W13       30.11F
COPPER HARBOR    N/A     58  38  47 CALM      30.09F
IRONWOOD       PTCLDY    46  43  87 CALM      30.13F
$$

ABBREVIATIONS USED IN REMARKS
   TC - TEMPERATURE IN CELSIUS
  WCI - WIND CHILL INDEX
   HX - HEAT INDEX
  VSB - VISIBILITY



USA.gov is the U.S. government's official web portal to all federal, state and local government web resources and services.